Regional Weather Roundup
Issued by NWS

Home | Current Version | Previous Version | Text Only | Print | Product List | Glossary Off
Versions: 1 2 3 4 5 6 7 8 9 10 11 12 13 14 15 16 17 18 19 20 21 22 23 24 25 26 27 28 29 30 31 32 33 34 35 36 37 38 39 40 41 42 43 44 45 46 47 48 49 50

000
ASUS44 KMEG 021600
RWRTN
TENNESSEE HOURLY STATE WEATHER ROUNDUP
NATIONAL WEATHER SERVICE MEMPHIS TN
1100 AM CDT WED SEP 02 2015

TNZ002-004-019-021-049-052-054-088>092-021700-
WEST TENNESSEE

CITY           SKY/WX    TMP DP  RH WIND       PRES   REMARKS
MEMPHIS INTL   MOSUNNY   87  69  54 CALM      30.11S HX  91
NWS MEMPHIS      N/A     86 N/A N/A MISG        N/A
JACKSON        MOSUNNY   86  73  65 CALM      30.12S HX  93
DYERSBURG      SUNNY     84  72  65 CALM      30.11F
UNION CITY     SUNNY     86  70  58 CALM      30.10F HX  90
PARIS          SUNNY     86  70  58 E5        30.12F HX  90
LEXINGTON      SUNNY     86  70  58 CALM      30.11F HX  90
$$

TNZ008-025-027-028-033-062-065-066-021700-
NORTH MIDDLE TENNESSEE

CITY           SKY/WX    TMP DP  RH WIND       PRES   REMARKS
NASHVILLE      PTSUNNY   86  65  49 E5        30.13F
CLARKSVILLE    SUNNY     87  66  49 CALM      30.13F
COOKEVILLE     SUNNY     86  72  62 N3        30.14F HX  92
CROSSVILLE     SUNNY     82  65  56 VRB3      30.20S
$$

TNZ061-075-076-078-094-096-097-021700-
SOUTH MIDDLE TENNESSEE

CITY           SKY/WX    TMP DP  RH WIND       PRES   REMARKS
FAYETTEVILLE   MOSUNNY   82  70  65 CALM      30.14S
TULLAHOMA      SUNNY     82  68  61 CALM      30.16S
WINCHESTER     SUNNY     84  70  61 CALM      30.14F
COLUMBIA       SUNNY     86  73  66 CALM      30.12S HX  93
SHELBYVILLE    SUNNY     84  73  70 CALM      30.15S HX  91
$$

TNZ017-018-042-046-047-021700-
NORTHEAST TENNESSEE

CITY           SKY/WX    TMP DP  RH WIND       PRES   REMARKS
TRI CITIES     MOSUNNY   82  67  60 CALM      30.17F
ELIZABETHTON   SUNNY     81  66  61 S5        30.16F
$$

TNZ012-013-036-069-073-074-021700-
CENTRAL EAST TENNESSEE

CITY           SKY/WX    TMP DP  RH WIND       PRES   REMARKS
KNOXVILLE      PTSUNNY   83  69  62 CALM      30.13F
OAK RIDGE      SUNNY     85  69  58 CALM      30.15F
GATLINBURG     SUNNY     86  64  48 CALM      30.13F
$$

TNZ083-085-099-021700-
SOUTHEAST TENNESSEE

CITY           SKY/WX    TMP DP  RH WIND       PRES   REMARKS
CHATTANOOGA    CLOUDY    84  69  60 N6        30.13F
$$

SKY/WX REPORTED AS FAIR MEANS FEW OR NO CLOUDS BELOW
12 THOUSAND FEET.



USA.gov is the U.S. government's official web portal to all federal, state and local government web resources and services.